Other Surface Observations
Issued by NWS Charleston, SC

Home | Current Version | Previous Version | Text Only | Print | Product List | Glossary On
Versions: 1 2 3 4 5 6 7 8 9 10 11 12 13 14 15 16 17 18 19 20 21 22 23 24 25 26 27 28 29 30 31 32 33 34 35 36 37 38 39 40 41 42 43 44 45 46 47 48 49 50
000
SXUS52 KCHS 272227
OSOCHS

MARINE OBSERVATIONS
NATIONAL WEATHER SERVICE CHARLESTON SC
600 PM EDT MON MAR 27 2017

...DOWNTOWN CHARLESTON AND HARBOR...

CITY           SKY/WX    TMP DP  RH WIND       PRES   REMARKS
WATERFRONT PRK   N/A     70  60  70 S13       30.02S

...LAKE MOULTRIE...

CITY           SKY/WX    TMP DP  RH WIND       PRES   REMARKS
PINOPOLIS        N/A    N/A N/A N/A SE6       29.94F

...LAKE AND SUPPLEMENTAL COASTAL OBSERVATIONS...

STATION/POSITION TIME  TEMP    WIND        PRES    WAVE   SWELL
                       AIR SEA DIR/SP/G            HT/PER HT/PER/DIR
                 (UTC) (F)     (DEG/KT/KT) (MB)    (FT/S) (FT/S/D)
FORT PULASKI     2200   70 64  180/  6/ 12 1017.2
SAPELO ISLAND    2100   76     150/ 11     1017.0
WINYAH BAY       NOT AVBL
LAKE MURRAY      2220   70      CALM  /  2 1014.2F
ACE BASIN NERRS  2145   70     170/  3     1017.0S


...C-MAN AND BUOY OBSERVATIONS...

STATION/POSITION TIME  TEMP    WIND        PRES    WAVE   SWELL
                       AIR SEA DIR/SP/G            HT/PER HT/PER/DIR
                 (UTC) (F)     (DEG/KT/KT) (MB)    (FT/S) (FT/S/D)
BUOY 41004       2150   72 76  180/  8/ 10 1017.1F   4/10   3/130/10
BUOY 41008       2150   67 65  140/  8/ 10 1017.0F   4/10   3/140/10
FOLLY BEACH CMAN 2200   67     180/  7/  8 1018.1F
CAPERS NS BUOY   2208   66     200/  6/  8 1017.1F
FRIPP NS BUOY    2208   66 64  160/  8/ 12 1016.7F
5E ST. MARYS GA  2200      67                N/A     4/ 9   2/120/11


STATION/POSITION TIME  TEMP    WIND        PRES    WAVE   SWELL
                       AIR SEA DIR/SP/G            HT/PER HT/PER/DIR
                 (UTC) (F)     (DEG/KT/KT) (MB)    (FT/S) (FT/S/D)
FRYING PAN BUOY  2210   72 77  180/  8/ 12 1017.4
BUOY 41025       2150   72 76  200/ 10/ 14 1017.7F   4/ 8   3/ 90/ 8
CAPE LOOKOUT NC  2200   66     170/  8/  8 1017.2F
BUOY 41002       2150   69 73   90/  6/  8 1018.8F   6/ 9   5/100/ 9
BUOY 41010       NOT AVBL
ST AUGUSTINE FL  2200   70 72  120/ 10/ 11 1018.1F

$$




USA.gov is the U.S. government's official web portal to all federal, state and local government web resources and services.